#timestamp,LO_Frequency,Hit,StdDev 
1626375615.1,286046998.9,N
1626375616.0,286046998.9,N
1626375635.8,286046998.9,N
1626375655.6,286046998.3,Y
1626375675.5,286047000.7,P
1626375695.3,286047001.0,N
1626375715.1,286047001.0,N
1626375735.9,286047000.7,N
1626375755.7,286047000.6,N
1626375775.6,286047000.8,N
1626375795.4,286047000.7,N
1626375815.2,286047000.6,N
1626375835.1,286047000.4,N
1626375836.0,286047000.4,N
1626375855.8,286047000.9,N
1626375875.7,286047000.4,N
1626375895.5,286047000.9,N
1626375915.3,286047000.7,N
1626375935.2,286047000.5,N
1626375955.0,286047000.4,N
1626375955.9,286047000.4,N
1626375975.7,286046999.8,N
1626375995.6,286047000.3,N
1626376015.4,286047000.6,N
1626376035.3,286047000.6,N
1626376055.1,286047000.3,N
1626376056.0,286047000.3,N
1626376075.8,286047000.9,N
1626376095.7,286047000.4,N
1626376115.5,286047000.6,N
1626376135.3,286047000.4,N
1626376155.2,286046999.8,N
1626376175.0,286047000.5,N
1626376175.9,286047000.5,N
1626376195.8,286047000.9,Y
1626376215.6,286047000.8,P
1626376235.4,286047001.2,P
1626376255.3,286047001.1,P
1626376275.1,286047001.0,Y
1626376295.9,286046999.0,P
1626376315.7,286046998.8,N
1626376335.5,286046998.7,N
1626376355.4,286046998.3,N
1626376375.2,286046998.9,N
1626376395.0,286046998.9,N
1626376395.9,286046998.9,N
1626376415.8,286046998.7,N
1626376435.6,286046998.8,N
1626376455.5,286046999.4,N
1626376475.3,286046998.7,N
1626376495.1,286046998.9,N
1626376515.9,286046998.8,N
1626376535.7,286046998.7,N
1626376555.6,286046998.9,N
1626376575.4,286046998.2,Y
1626376595.2,286047001.0,P
1626376615.1,286047000.6,N
1626376616.0,286047000.6,N
1626376635.8,286047000.6,N
1626376655.6,286047001.0,N
1626376675.5,286047000.8,N
1626376695.3,286047001.2,N
1626376715.2,286047001.2,N
1626376735.9,286047000.8,N
1626376755.7,286047000.6,N
1626376775.6,286047000.9,N
1626376795.4,286047000.6,N
1626376815.3,286047000.5,N
1626376835.1,286047001.0,N
1626376836.0,286047001.0,N
1626376855.8,286047000.8,N
1626376875.7,286047000.7,N
1626376895.5,286047000.9,N
1626376915.4,286047000.5,N
1626376935.2,286047000.9,N
1626376955.0,286047001.0,N
1626376955.9,286047001.0,N
1626376975.8,286047000.9,N
1626376995.6,286047000.8,N
1626377015.4,286047001.0,N
1626377035.3,286047000.8,N
1626377055.1,286047001.0,N
1626377075.9,286047000.5,N
1626377095.7,286046998.1,Y
1626377115.5,286046998.8,P
1626377135.4,286046998.3,N
1626377155.2,286046998.9,N
1626377175.0,286046998.6,N
1626377176.0,286046998.6,N
1626377195.8,286046998.4,N
1626377215.6,286046998.5,N
1626377235.5,286046998.4,N
1626377255.3,286047001.1,N
1626377275.1,286046998.7,N
1626377295.9,286046998.4,N
1626377315.7,286046998.8,N
1626377335.6,286046998.8,N
1626377355.4,286046998.9,N
1626377375.2,286046998.8,N
1626377395.1,286046999.0,N
1626377396.0,286046999.0,N
1626377415.8,286046998.7,N
1626377435.6,286046998.4,N
1626377455.5,286046998.3,N
1626377475.3,286046998.5,N
1626377495.2,286046998.5,N
1626377515.9,286046998.5,N
1626377535.7,286046998.9,N
1626377555.6,286046998.8,N
1626377575.4,286046998.9,N
1626377595.3,286046998.9,N
1626377615.1,286046998.8,N
1626377616.0,286046998.8,N
1626377635.8,286046999.0,N
1626377655.7,286046998.8,N
1626377675.5,286046998.7,N
1626377695.3,286046998.9,N
1626377715.2,286046999.3,N
1626377735.0,286046998.4,Y
1626377735.9,286046998.4,P
1626377755.8,286047000.3,N
1626377775.6,286047000.0,N
1626377795.4,286047000.2,N
1626377815.3,286047002.3,N
1626377835.1,286047000.1,N
1626377855.9,286047000.0,N
1626377875.7,286047000.5,N
1626377895.5,286047000.9,N
1626377915.4,286047000.9,N
1626377935.2,286047000.9,N
1626377955.0,286047001.0,N
1626377955.9,286047001.0,N
1626377975.8,286047000.6,N
1626377995.6,286047000.6,N
1626378015.5,286047000.9,N
1626378035.3,286047000.3,N
1626378055.1,286047001.1,N
1626378075.9,286047000.5,N
1626378095.7,286047000.6,N
1626378115.5,286047000.0,N
1626378135.4,286047000.3,N
1626378155.2,286047000.4,N
1626378175.1,286047000.4,N
1626378176.0,286047000.4,N
1626378195.8,286047000.3,N
1626378215.6,286047000.4,N
1626378235.5,286047000.4,N
1626378255.3,286047000.5,N
1626378275.1,286047000.7,N
1626378295.9,286047000.8,N
1626378315.7,286047000.6,N
1626378335.6,286047000.9,N
1626378355.4,286047001.1,N
1626378375.2,286047000.6,N
1626378395.1,286047000.4,N
1626378396.0,286047000.4,N
1626378415.8,286047000.3,N
1626378435.7,286047000.3,N
1626378455.5,286047000.4,N
1626378475.3,286047000.4,N
1626378495.2,286047000.5,N
1626378515.9,286047000.4,N
1626378535.7,286047000.3,N
1626378555.6,286047000.4,N
1626378575.4,286047000.5,N
1626378595.3,286047000.4,N
1626378615.1,286047000.1,N
1626378616.0,286047000.1,N
1626378635.8,286047000.5,N
1626378655.7,286047000.3,N
1626378675.5,286047000.9,Y
1626378695.3,286047000.7,P
1626378715.2,286047000.8,P
1626378735.0,286047000.0,N
1626378735.9,286047000.0,N
1626378755.8,286047001.1,Y
1626378775.6,286046998.6,P
1626378795.4,286046998.3,N
1626378815.3,286047001.0,N
1626378835.1,286046998.6,N
1626378855.9,286046998.2,N
1626378875.7,286047001.0,N
1626378895.5,286046998.6,N
1626378915.4,286046998.4,N
1626378935.2,286046998.3,N
1626378955.0,286046998.6,N
1626378955.9,286046998.6,N
1626378975.8,286046998.3,N
1626378995.6,286046998.4,N
1626379015.5,286047000.8,N
1626379035.3,286046998.3,N
1626379055.1,286046998.4,N
1626379075.9,286046998.6,N
1626379095.7,286046998.5,N
1626379115.5,286046998.4,N
1626379135.4,286047001.2,N
1626379155.2,286047001.1,N
1626379175.1,286046998.2,N
1626379176.0,286046998.2,N
1626379195.8,286046998.7,N
